Theta_e
353 353 352 351 352 352 353 352 352 353 353 354 354 352 352 354 354 355 355 356 356 354 352 354 357 358 357 357 356 356 357 356 356 356 356 355 355 355 354 356 357 356
353 354 353 352 352 353 354 353 352 353 352 353 354 352 352 353 354 355 355 356 356 355 353 354 356 358 357 356 356 356 357 356 356 357 357 356 356 356 355 356 358 357
352 355 355 354 353 353 354 353 352 352 352 353 353 353 353 353 353 354 355 355 355 355 354 354 356 357 356 356 356 356 356 355 355 356 357 357 357 357 356 357 357 357
352 355 357 355 355 354 354 353 352 352 352 352 353 354 354 354 353 353 354 355 355 355 354 355 357 357 357 356 356 357 357 355 355 356 356 356 356 356 356 357 357 356
352 354 356 356 355 354 353 352 353 352 353 353 353 354 355 354 355 355 355 355 355 355 355 355 356 356 357 357 357 358 358 357 356 355 354 354 356 357 358 358 357 357
351 353 355 355 354 354 353 352 352 353 354 354 354 354 355 354 355 355 356 356 356 356 356 356 356 356 357 358 358 359 358 357 357 356 355 353 354 355 357 359 358 357
351 352 354 355 354 353 352 351 351 352 353 353 353 354 355 355 354 354 355 356 356 356 356 356 356 355 357 358 359 359 357 357 357 357 357 355 354 354 355 357 357 355
352 351 351 354 354 353 352 351 351 352 352 352 353 353 354 354 354 354 354 354 355 356 356 356 356 355 356 357 357 357 357 356 356 357 357 356 355 354 353 354 355 354
353 352 351 353 354 354 353 353 352 353 353 353 354 354 353 353 354 354 355 354 354 356 355 356 356 356 356 356 357 357 356 356 356 356 356 355 355 354 353 354 355 355
354 352 351 352 353 353 353 353 353 354 355 355 355 355 353 353 354 354 354 354 354 355 355 355 355 356 356 357 357 357 357 356 355 356 356 355 353 353 352 353 354 355
355 353 351 351 352 353 352 353 354 354 355 355 355 355 354 353 353 353 353 353 353 353 354 354 355 355 356 357 357 357 357 356 356 355 354 354 353 353 352 352 352 353
355 354 354 353 353 352 352 353 354 354 354 354 354 354 354 353 352 351 351 350 351 351 352 353 354 354 355 355 355 355 355 355 355 355 355 354 353 352 352 352 351 351
356 355 355 354 354 354 353 353 355 355 355 354 354 354 354 354 352 351 350 350 350 350 350 351 352 353 354 354 355 355 354 354 354 354 355 354 354 352 352 352 351 351
356 356 355 355 354 354 354 354 355 355 355 355 355 354 354 354 352 351 351 350 350 350 350 350 350 351 351 352 353 354 354 354 354 354 354 354 353 353 352 351 351 351
355 356 355 355 355 354 354 354 354 354 355 354 353 352 351 351 351 350 350 350 350 350 349 350 350 350 350 350 350 351 351 352 353 354 354 353 353 353 352 352 351 351
351 353 354 354 354 354 354 354 354 354 354 354 353 351 350 348 348 348 349 349 349 349 349 349 349 349 349 348 348 349 348 349 350 351 352 353 353 353 352 351 351 350
349 351 352 352 353 353 353 353 354 354 354 354 353 352 351 350 348 347 347 347 348 349 349 349 349 349 349 348 348 348 348 348 348 349 350 350 351 352 351 351 350 349
351 351 351 351 351 351 352 352 352 351 352 352 353 353 352 352 350 349 348 347 347 348 350 351 350 349 349 348 348 347 347 348 348 349 350 350 350 350 350 350 349 349
351 351 350 351 352 352 352 351 351 351 351 351 352 352 352 352 351 351 350 348 347 348 350 352 352 351 349 348 347 347 347 348 349 350 350 350 351 351 351 350 350 350
348 349 350 350 351 351 352 353 353 353 353 353 353 353 353 352 352 351 351 350 349 348 349 352 353 353 351 349 348 347 346 347 348 349 350 350 350 351 351 350 350 350
344 345 346 347 347 347 348 349 351 352 352 352 353 354 354 354 353 353 352 351 352 351 351 352 353 354 353 351 349 347 347 347 348 349 350 350 350 350 350 350 350 351
341 340 341 342 343 344 345 344 344 345 346 348 350 352 354 355 355 354 354 354 354 353 353 353 353 354 353 353 352 351 350 349 349 349 349 350 350 350 350 350 350 350
334 334 335 336 337 339 340 339 340 342 343 344 346 348 351 354 355 355 354 355 354 354 354 354 354 354 354 353 353 353 353 352 352 352 352 351 351 351 351 352 352 352
327 328 330 331 330 329 329 331 334 337 340 342 343 344 347 351 353 353 353 354 354 355 355 355 354 354 354 354 354 353 353 353 353 353 353 353 353 353 353 353 353 354
325 325 326 326 324 323 323 325 327 330 334 337 340 342 344 346 349 350 351 351 352 353 355 355 356 356 354 354 354 354 353 354 353 354 353 353 353 353 353 353 353 354
323 323 323 322 322 322 322 324 325 326 327 328 331 336 339 341 345 347 348 349 349 350 350 351 352 353 353 352 352 352 352 352 353 353 353 353 353 353 352 353 353 353
Wind_Speed
19 20 22 22 21 20 18 18 19 19 19 18 17 17 16 15 14 12 12 11 10 10 11 11 10 9 9 10 10 10 10 10 9 8 7 7 7 6 6 5 5 6
20 20 21 21 21 20 19 18 19 20 19 19 17 16 15 15 14 13 12 12 11 11 11 12 11 10 10 10 11 11 11 11 10 9 7 7 7 6 6 6 6 7
23 22 21 22 22 21 20 18 19 20 19 18 18 16 15 14 14 13 13 13 12 12 12 12 11 10 10 11 11 11 11 10 10 9 8 8 7 7 7 7 7 7
25 24 22 22 21 21 20 18 18 20 19 19 18 17 16 15 14 14 14 13 13 13 13 13 12 12 11 11 11 11 11 10 10 9 9 9 8 9 9 8 8 8
27 26 23 21 21 20 20 19 18 20 20 19 18 17 16 16 15 15 15 15 15 14 14 14 13 13 12 12 12 12 12 12 11 10 11 11 10 10 10 9 9 10
27 27 24 22 20 20 21 20 19 19 20 19 18 17 16 16 17 17 17 16 16 16 17 16 16 15 14 14 13 13 14 13 12 11 12 13 12 12 11 11 11 11
27 28 26 23 20 21 21 21 20 20 20 19 19 19 18 17 18 20 19 18 17 17 18 18 18 17 16 15 14 14 14 14 13 12 13 13 13 13 13 12 12 12
27 27 27 25 22 21 22 22 21 21 20 19 19 19 20 19 18 19 20 20 18 17 17 17 18 18 16 15 15 15 14 14 15 14 15 15 14 14 14 12 13 13
26 26 27 27 25 23 24 23 23 21 20 20 19 18 19 19 19 18 19 20 19 19 17 17 18 18 17 16 16 16 15 15 15 15 16 16 16 16 15 14 14 14
27 27 27 28 27 26 26 25 24 22 20 20 19 18 19 19 19 19 19 20 20 20 20 19 20 20 19 18 18 18 17 16 16 16 17 17 17 17 17 17 16 16
28 29 29 29 29 28 27 26 25 24 23 22 21 21 20 20 20 20 20 21 21 21 21 21 21 22 21 21 20 19 19 19 18 18 18 18 17 17 17 17 18 18
28 29 29 30 29 29 28 27 26 25 24 24 23 22 22 22 22 21 21 22 22 22 23 22 22 22 23 23 22 21 21 21 21 21 20 20 19 18 17 17 18 19
28 27 28 29 29 29 28 27 26 25 24 23 23 22 23 24 24 24 23 22 22 23 24 24 23 23 24 25 24 23 22 22 22 23 23 23 22 21 19 19 19 19
28 26 26 27 27 27 27 27 26 25 24 23 22 22 22 23 24 25 24 24 24 24 24 25 26 26 26 26 26 25 24 23 23 23 24 24 24 23 22 22 21 20
26 26 24 23 24 24 25 25 25 25 24 23 22 21 19 19 20 22 23 23 24 25 25 26 27 28 28 28 28 28 27 26 26 25 25 25 25 25 25 24 24 23
21 24 24 22 21 21 22 23 23 24 24 23 22 20 19 18 18 18 18 20 21 22 24 25 27 28 29 29 30 30 30 29 29 28 27 27 27 27 27 27 26 25
18 20 20 20 19 19 20 20 21 22 22 22 22 21 20 20 20 19 18 18 18 19 21 22 25 27 29 30 31 31 31 32 31 31 30 29 29 29 29 28 28 27
12 12 12 12 13 14 14 15 17 18 18 19 20 21 20 20 21 21 21 20 18 17 18 19 23 25 27 28 29 30 31 33 33 32 31 30 30 30 30 30 29 29
6 7 6 6 7 8 8 9 11 12 14 15 17 18 19 19 20 20 21 21 21 19 17 16 19 22 24 26 27 28 29 32 33 32 31 31 31 30 30 30 30 30
5 6 6 6 6 5 5 5 5 5 6 8 10 13 15 16 16 17 18 19 20 19 17 15 14 17 20 23 25 26 27 29 31 31 31 31 31 31 31 31 31 30
8 8 6 6 6 6 5 5 4 3 3 3 3 5 7 9 10 12 14 15 16 16 15 14 13 12 14 17 20 22 23 25 27 28 29 30 31 31 31 32 32 31
10 10 9 8 7 7 7 7 6 4 2 1 2 2 2 3 4 6 8 10 12 12 13 13 13 12 11 11 12 14 15 17 20 23 25 26 28 29 30 31 31 31
12 11 11 11 10 10 10 9 8 7 6 4 2 2 2 2 2 3 4 5 7 9 10 12 12 13 12 11 11 10 11 12 14 16 18 20 22 23 24 25 25 26
14 15 14 14 14 14 13 10 8 7 6 6 5 5 3 2 3 3 3 4 5 6 7 8 9 10 10 10 10 10 11 12 13 14 16 17 19 19 20 21 22 22
14 15 15 15 16 17 15 14 12 9 7 6 5 5 5 4 3 3 3 3 3 4 4 5 6 6 7 7 8 9 10 11 12 14 16 17 18 19 20 20 21 22
14 14 15 17 18 17 15 15 14 12 8 5 4 3 4 4 3 2 2 3 3 3 4 5 5 5 6 7 8 9 10 10 11 13 14 16 17 17 18 19 19 19
Wind_Direction
217 217 216 216 215 216 218 220 221 221 223 225 224 221 219 219 218 223 232 237 240 241 236 233 237 248 259 266 265 259 257 260 264 271 266 256 259 261 255 264 295 310
215 214 214 216 216 218 221 226 226 225 225 227 225 222 223 225 227 230 234 238 240 238 232 230 232 244 257 263 261 260 262 263 261 264 266 260 261 263 260 274 296 309
217 215 213 217 219 220 223 228 229 227 228 227 224 223 226 229 232 235 236 238 239 235 229 227 231 242 255 258 257 260 263 261 258 261 265 263 265 266 266 279 291 300
217 216 214 218 222 224 225 226 228 227 226 225 223 224 227 230 233 236 238 239 237 232 228 229 234 240 248 252 251 254 257 257 256 258 261 261 265 268 269 277 283 286
218 216 215 218 223 226 225 225 226 225 223 222 222 224 227 229 232 237 240 240 236 232 230 232 237 239 242 245 247 248 250 252 254 256 260 261 262 264 266 272 278 279
218 218 218 220 223 225 226 225 225 224 222 221 222 224 227 230 235 239 241 241 238 236 235 236 238 238 238 239 243 247 247 248 250 255 261 261 258 257 260 267 275 278
218 219 220 223 225 226 227 227 228 227 227 230 231 230 231 235 239 241 241 243 244 240 237 236 236 236 236 237 241 245 247 247 248 252 258 258 256 255 257 261 270 278
219 219 219 221 224 226 228 229 231 233 234 239 241 238 235 237 243 246 246 247 248 244 238 235 233 234 235 236 239 244 247 248 248 252 257 256 254 255 255 257 265 274
219 220 219 220 223 226 228 230 232 234 237 240 245 244 239 238 245 252 253 253 252 247 243 240 238 237 238 238 240 244 247 250 251 253 255 256 256 255 254 256 262 269
217 218 219 221 225 227 229 231 233 235 236 239 244 245 242 240 245 252 255 257 257 252 250 250 248 245 245 245 247 248 249 251 254 254 256 259 259 259 258 260 265 269
216 217 217 218 222 228 231 232 234 235 237 239 242 244 245 244 245 249 252 256 258 258 257 257 256 254 253 254 255 255 253 254 257 259 259 261 263 265 266 267 269 270
217 218 218 218 220 225 229 233 235 236 238 240 241 244 246 247 246 247 250 253 255 258 259 260 259 257 256 258 260 259 258 257 258 260 262 263 264 266 269 273 274 274
216 218 220 220 222 224 227 230 232 235 238 240 242 246 250 252 250 248 250 252 254 256 259 260 259 257 256 257 258 259 259 259 258 260 262 263 263 264 266 270 274 276
216 219 220 221 223 225 226 228 230 231 234 237 240 245 251 253 253 252 251 252 255 258 260 260 259 257 257 256 257 258 258 258 259 259 261 263 263 264 265 266 269 272
217 218 219 220 221 223 226 227 229 230 230 232 235 239 243 247 249 250 251 252 255 258 260 261 260 259 258 259 259 259 259 259 258 258 260 262 263 265 266 266 268 269
226 221 219 220 221 223 226 226 227 228 228 229 231 233 236 237 238 241 245 249 253 257 259 260 260 259 260 260 261 262 262 261 260 260 261 262 264 266 267 268 269 270
238 230 223 223 225 226 228 228 230 231 232 231 232 234 236 238 239 240 242 247 252 256 260 262 261 261 261 261 262 264 264 262 261 261 262 262 263 265 267 269 271 272
239 232 219 215 221 226 228 230 233 236 237 236 235 237 240 242 243 243 245 248 251 255 260 262 262 263 263 263 264 264 265 263 260 259 260 261 263 264 266 269 271 273
216 213 197 188 200 214 222 227 233 237 238 239 238 239 240 242 244 244 244 245 246 248 255 262 264 263 262 262 262 263 263 263 260 258 258 260 262 264 267 269 271 274
138 153 153 153 160 169 178 188 200 215 228 238 242 243 244 245 245 245 244 244 244 244 246 254 262 264 263 261 260 260 260 260 261 260 259 260 261 263 266 268 270 273
72 78 89 110 127 134 134 134 140 157 185 208 227 243 251 251 249 246 244 244 245 244 243 244 249 256 260 261 261 260 259 259 259 260 260 260 261 262 263 266 268 270
54 51 49 58 81 97 93 88 86 79 68 239 231 233 241 249 249 245 243 243 244 245 246 244 246 248 251 255 259 261 261 259 258 259 259 260 261 262 264 265 268 270
47 48 45 46 52 61 65 62 60 59 48 27 355 306 272 255 249 242 240 243 245 248 249 249 249 251 253 256 258 259 259 257 257 257 257 258 260 262 265 266 269 271
47 47 48 47 43 42 44 39 39 44 31 18 13 359 337 298 273 262 246 242 244 248 250 251 252 251 251 253 256 258 258 257 259 261 262 263 265 266 268 270 272 274
45 43 42 37 28 26 30 31 29 26 16 5 357 352 347 333 303 288 281 276 270 260 251 252 255 252 249 251 253 258 262 263 266 268 269 271 273 274 274 274 275 276
36 33 29 26 20 17 20 23 20 15 11 6 357 343 333 327 323 320 326 336 330 308 281 266 267 269 272 276 274 270 271 272 271 272 274 277 279 278 278 278 279 280